Time,TemperatureF,DewpointF,PressureIn,WindDirection,WindDirectionDegrees,WindSpeedMPH,WindSpeedGustMPH,Humidity,HourlyPrecipIn,Conditions,Clouds,dailyrainin,SolarRadiationWatts/m^2,SoftwareType,DateUTC
2013-01-09 00:02:00,23.0,21.0,-100.00,SW,232,5.0,13.0,91,0.00,,,0.01,0.000000,,2013-01-09 07:02:00,
2013-01-09 00:12:00,23.0,21.0,-100.00,SW,232,5.0,13.0,91,0.00,,,0.01,0.000000,,2013-01-09 07:12:00,
2013-01-09 00:22:00,23.0,21.0,-100.00,SW,232,5.0,13.0,91,0.00,,,0.01,0.000000,,2013-01-09 07:22:00,
2013-01-09 00:32:00,23.0,21.0,-100.00,SW,232,5.0,13.0,91,0.00,,,0.01,0.000000,,2013-01-09 07:32:00,
2013-01-09 00:52:00,24.0,22.0,-100.00,SW,225,6.0,14.0,91,0.00,,,0.01,0.000000,,2013-01-09 07:52:00,
2013-01-09 01:02:00,24.0,22.0,-100.00,SW,225,6.0,14.0,91,0.00,,,0.01,0.000000,,2013-01-09 08:02:00,
2013-01-09 01:12:00,24.0,22.0,-100.00,SW,225,6.0,14.0,91,0.00,,,0.01,0.000000,,2013-01-09 08:12:00,
2013-01-09 01:22:00,24.0,22.0,-100.00,SW,225,6.0,14.0,91,0.00,,,0.01,0.000000,,2013-01-09 08:22:00,
2013-01-09 01:32:00,24.0,22.0,-100.00,SW,225,6.0,14.0,91,0.00,,,0.01,0.000000,,2013-01-09 08:32:00,
2013-01-09 01:53:00,25.0,23.0,-100.00,SW,233,7.0,17.0,91,0.00,,,0.01,0.000000,,2013-01-09 08:53:00,
2013-01-09 02:02:00,25.0,23.0,-100.00,SW,233,7.0,17.0,91,0.00,,,0.01,0.000000,,2013-01-09 09:02:00,
2013-01-09 02:12:00,25.0,23.0,-100.00,SW,233,7.0,17.0,91,0.00,,,0.01,0.000000,,2013-01-09 09:12:00,
2013-01-09 02:22:00,25.0,23.0,-100.00,SW,233,7.0,17.0,91,0.00,,,0.01,0.000000,,2013-01-09 09:22:00,
2013-01-09 02:32:00,25.0,23.0,-100.00,SW,233,7.0,17.0,91,0.00,,,0.01,0.000000,,2013-01-09 09:32:00,
2013-01-09 02:53:00,25.0,23.0,-100.00,SW,227,6.0,18.0,91,0.00,,,0.01,0.000000,,2013-01-09 09:53:00,
2013-01-09 03:02:00,25.0,23.0,-100.00,SW,227,6.0,18.0,91,0.00,,,0.01,0.000000,,2013-01-09 10:02:00,
2013-01-09 03:11:00,25.0,23.0,-100.00,SW,227,6.0,18.0,91,0.00,,,0.01,0.000000,,2013-01-09 10:11:00,
2013-01-09 03:22:00,25.0,23.0,-100.00,SW,227,6.0,18.0,91,0.00,,,0.01,0.000000,,2013-01-09 10:22:00,
2013-01-09 03:32:00,25.0,23.0,-100.00,SW,227,6.0,18.0,91,0.00,,,0.01,0.000000,,2013-01-09 10:32:00,
2013-01-09 03:52:00,26.0,24.0,-100.00,SW,224,5.0,14.0,91,0.00,,,0.01,0.000000,,2013-01-09 10:52:00,
2013-01-09 04:02:00,26.0,24.0,-100.00,SW,224,5.0,14.0,91,0.00,,,0.01,0.000000,,2013-01-09 11:02:00,
2013-01-09 04:12:00,26.0,24.0,-100.00,SW,224,5.0,14.0,91,0.00,,,0.01,0.000000,,2013-01-09 11:12:00,
2013-01-09 04:22:00,26.0,24.0,-100.00,SW,224,5.0,14.0,91,0.00,,,0.01,0.000000,,2013-01-09 11:22:00,
2013-01-09 04:32:00,26.0,24.0,-100.00,SW,224,5.0,14.0,91,0.00,,,0.01,0.000000,,2013-01-09 11:32:00,
2013-01-09 04:53:00,26.0,24.0,-100.00,ENE,58,1.0,8.0,91,0.00,,,0.01,0.000000,,2013-01-09 11:53:00,
2013-01-09 05:03:00,26.0,24.0,-100.00,ENE,58,1.0,8.0,91,0.00,,,0.01,0.000000,,2013-01-09 12:03:00,
2013-01-09 05:12:00,26.0,24.0,-100.00,ENE,58,1.0,8.0,91,0.00,,,0.01,0.000000,,2013-01-09 12:12:00,
2013-01-09 05:22:00,26.0,24.0,-100.00,ENE,58,1.0,8.0,91,0.00,,,0.01,0.000000,,2013-01-09 12:22:00,
2013-01-09 05:32:00,26.0,24.0,-100.00,ENE,58,1.0,8.0,91,0.00,,,0.01,0.000000,,2013-01-09 12:32:00,
2013-01-09 06:02:00,26.0,24.0,-100.00,NNE,12,1.0,3.0,92,0.00,,,0.01,0.000000,,2013-01-09 13:02:00,
2013-01-09 06:12:00,26.0,24.0,-100.00,NNE,12,1.0,3.0,92,0.00,,,0.01,0.000000,,2013-01-09 13:12:00,
2013-01-09 06:22:00,26.0,24.0,-100.00,NNE,12,1.0,3.0,92,0.00,,,0.01,0.000000,,2013-01-09 13:22:00,
2013-01-09 06:32:00,26.0,24.0,-100.00,NNE,12,1.0,3.0,92,0.00,,,0.01,0.000000,,2013-01-09 13:32:00,
2013-01-09 07:02:00,26.0,24.0,-100.00,SSW,209,2.0,4.0,93,0.00,,,0.01,0.000000,,2013-01-09 14:02:00,
2013-01-09 07:12:00,26.0,24.0,-100.00,SSW,209,2.0,4.0,93,0.00,,,0.01,0.000000,,2013-01-09 14:12:00,
2013-01-09 07:22:00,26.0,24.0,-100.00,SSW,209,2.0,4.0,93,0.00,,,0.01,0.000000,,2013-01-09 14:22:00,
2013-01-09 07:32:00,26.0,24.0,-100.00,SSW,209,2.0,4.0,93,0.00,,,0.01,0.000000,,2013-01-09 14:32:00,
2013-01-09 07:53:00,27.0,25.0,-100.00,SW,227,3.0,10.0,92,0.00,,,0.01,0.000000,,2013-01-09 14:53:00,
2013-01-09 08:03:00,27.0,25.0,-100.00,SW,227,3.0,10.0,92,0.00,,,0.01,0.000000,,2013-01-09 15:03:00,
2013-01-09 08:12:00,27.0,25.0,-100.00,SW,227,3.0,10.0,92,0.00,,,0.01,0.000000,,2013-01-09 15:12:00,
2013-01-09 08:22:00,27.0,25.0,-100.00,SW,227,3.0,10.0,92,0.00,,,0.01,0.000000,,2013-01-09 15:22:00,
2013-01-09 08:33:00,27.0,25.0,-100.00,SW,227,3.0,10.0,92,0.00,,,0.01,0.000000,,2013-01-09 15:33:00,
2013-01-09 08:53:00,28.0,26.0,-100.00,WSW,243,2.0,4.0,93,0.00,,,0.01,0.000000,,2013-01-09 15:53:00,
2013-01-09 09:03:00,28.0,26.0,-100.00,WSW,243,2.0,4.0,93,0.00,,,0.01,0.000000,,2013-01-09 16:03:00,
2013-01-09 09:12:00,28.0,26.0,-100.00,WSW,243,2.0,4.0,93,0.00,,,0.01,0.000000,,2013-01-09 16:12:00,
2013-01-09 09:22:00,28.0,26.0,-100.00,WSW,243,2.0,4.0,93,0.00,,,0.01,0.000000,,2013-01-09 16:22:00,
2013-01-09 09:33:00,28.0,26.0,-100.00,WSW,243,2.0,4.0,93,0.00,,,0.01,0.000000,,2013-01-09 16:33:00,
2013-01-09 10:02:00,30.0,27.0,-100.00,North,8,2.0,4.0,90,0.00,,,0.01,9.000000,,2013-01-09 17:02:00,
2013-01-09 10:12:00,30.0,27.0,-100.00,North,8,2.0,4.0,90,0.00,,,0.01,9.000000,,2013-01-09 17:12:00,
2013-01-09 10:22:00,30.0,27.0,-100.00,North,8,2.0,4.0,90,0.00,,,0.01,9.000000,,2013-01-09 17:22:00,
2013-01-09 10:32:00,30.0,27.0,-100.00,North,8,2.0,4.0,90,0.00,,,0.01,9.000000,,2013-01-09 17:32:00,
2013-01-09 10:53:00,32.0,27.0,-100.00,SW,225,1.0,5.0,82,0.00,,,0.01,23.000000,,2013-01-09 17:53:00,
2013-01-09 11:03:00,32.0,27.0,-100.00,SW,225,1.0,5.0,82,0.00,,,0.01,23.000000,,2013-01-09 18:03:00,
2013-01-09 11:12:00,32.0,27.0,-100.00,SW,225,1.0,5.0,82,0.00,,,0.01,23.000000,,2013-01-09 18:12:00,
2013-01-09 11:23:00,32.0,27.0,-100.00,SW,225,1.0,5.0,82,0.00,,,0.01,23.000000,,2013-01-09 18:23:00,
2013-01-09 11:32:00,32.0,27.0,-100.00,SW,225,1.0,5.0,82,0.00,,,0.01,23.000000,,2013-01-09 18:32:00,
2013-01-09 11:53:00,35.0,28.0,-100.00,South,188,4.0,9.0,74,0.00,,,0.01,38.000000,,2013-01-09 18:53:00,
2013-01-09 12:02:00,35.0,28.0,-100.00,South,188,4.0,9.0,74,0.00,,,0.01,38.000000,,2013-01-09 19:02:00,
2013-01-09 12:12:00,35.0,28.0,-100.00,South,188,4.0,9.0,74,0.00,,,0.01,38.000000,,2013-01-09 19:12:00,
2013-01-09 12:22:00,35.0,28.0,-100.00,South,188,4.0,9.0,74,0.00,,,0.01,38.000000,,2013-01-09 19:22:00,
2013-01-09 12:32:00,35.0,28.0,-100.00,South,188,4.0,9.0,74,0.00,,,0.01,38.000000,,2013-01-09 19:32:00,
2013-01-09 13:02:00,35.0,28.0,-100.00,SW,224,2.0,11.0,75,0.00,,,0.01,133.000000,,2013-01-09 20:02:00,
2013-01-09 13:12:00,35.0,28.0,-100.00,SW,224,2.0,11.0,75,0.00,,,0.01,133.000000,,2013-01-09 20:12:00,
2013-01-09 13:22:00,35.0,28.0,-100.00,SW,224,2.0,11.0,75,0.00,,,0.01,133.000000,,2013-01-09 20:22:00,
2013-01-09 13:32:00,35.0,28.0,-100.00,SW,224,2.0,11.0,75,0.00,,,0.01,133.000000,,2013-01-09 20:32:00,
2013-01-09 13:53:00,35.0,28.0,-100.00,WSW,237,2.0,6.0,76,0.00,,,0.01,124.000000,,2013-01-09 20:53:00,
2013-01-09 14:03:00,35.0,28.0,-100.00,WSW,237,2.0,6.0,76,0.00,,,0.01,124.000000,,2013-01-09 21:03:00,
2013-01-09 14:12:00,35.0,28.0,-100.00,WSW,237,2.0,6.0,76,0.00,,,0.01,124.000000,,2013-01-09 21:12:00,
2013-01-09 14:22:00,35.0,28.0,-100.00,WSW,237,2.0,6.0,76,0.00,,,0.01,124.000000,,2013-01-09 21:22:00,
2013-01-09 14:32:00,35.0,28.0,-100.00,WSW,237,2.0,6.0,76,0.00,,,0.01,124.000000,,2013-01-09 21:32:00,
2013-01-09 14:53:00,34.0,28.0,-100.00,West,276,2.0,6.0,77,0.00,,,0.00,108.000000,,2013-01-09 21:53:00,
2013-01-09 15:03:00,34.0,28.0,-100.00,West,276,2.0,6.0,77,0.00,,,0.00,108.000000,,2013-01-09 22:03:00,
2013-01-09 15:12:00,34.0,28.0,-100.00,West,276,2.0,6.0,77,0.00,,,0.00,108.000000,,2013-01-09 22:12:00,
2013-01-09 15:22:00,34.0,28.0,-100.00,West,276,2.0,6.0,77,0.00,,,0.00,108.000000,,2013-01-09 22:22:00,
2013-01-09 15:32:00,34.0,28.0,-100.00,West,276,2.0,6.0,77,0.00,,,0.00,108.000000,,2013-01-09 22:32:00,
2013-01-09 16:02:00,35.0,29.0,-100.00,WSW,249,2.0,7.0,78,0.00,,,0.00,95.000000,,2013-01-09 23:02:00,
2013-01-09 16:12:00,35.0,29.0,-100.00,WSW,249,2.0,7.0,78,0.00,,,0.00,95.000000,,2013-01-09 23:12:00,
2013-01-09 16:22:00,35.0,29.0,-100.00,WSW,249,2.0,7.0,78,0.00,,,0.00,95.000000,,2013-01-09 23:22:00,
2013-01-09 16:32:00,35.0,29.0,-100.00,WSW,249,2.0,7.0,78,0.00,,,0.00,95.000000,,2013-01-09 23:32:00,
2013-01-09 16:53:00,32.0,28.0,-100.00,South,185,2.0,7.0,85,0.00,,,0.00,36.000000,,2013-01-09 23:53:00,
2013-01-09 17:03:00,32.0,28.0,-100.00,South,185,2.0,7.0,85,0.00,,,0.00,36.000000,,2013-01-10 00:03:00,
2013-01-09 17:12:00,32.0,28.0,-100.00,South,185,2.0,7.0,85,0.00,,,0.00,36.000000,,2013-01-10 00:12:00,
2013-01-09 17:22:00,32.0,28.0,-100.00,South,185,2.0,7.0,85,0.00,,,0.00,36.000000,,2013-01-10 00:22:00,
2013-01-09 17:32:00,32.0,28.0,-100.00,South,185,2.0,7.0,85,0.00,,,0.00,36.000000,,2013-01-10 00:32:00,
2013-01-09 18:02:00,30.0,27.0,-100.00,SSE,150,2.0,6.0,88,0.00,,,0.00,1.000000,,2013-01-10 01:02:00,
2013-01-09 18:12:00,30.0,27.0,-100.00,SSE,150,2.0,6.0,88,0.00,,,0.00,1.000000,,2013-01-10 01:12:00,
2013-01-09 18:22:00,30.0,27.0,-100.00,SSE,150,2.0,6.0,88,0.00,,,0.00,1.000000,,2013-01-10 01:22:00,
2013-01-09 18:32:00,30.0,27.0,-100.00,SSE,150,2.0,6.0,88,0.00,,,0.00,1.000000,,2013-01-10 01:32:00,
2013-01-09 18:53:00,28.0,25.0,-100.00,East,85,2.0,5.0,90,0.00,,,0.00,0.000000,,2013-01-10 01:53:00,
2013-01-09 19:02:00,28.0,25.0,-100.00,East,85,2.0,5.0,90,0.00,,,0.00,0.000000,,2013-01-10 02:02:00,
2013-01-09 19:12:00,28.0,25.0,-100.00,East,85,2.0,5.0,90,0.00,,,0.00,0.000000,,2013-01-10 02:12:00,
2013-01-09 19:22:00,28.0,25.0,-100.00,East,85,2.0,5.0,90,0.00,,,0.00,0.000000,,2013-01-10 02:22:00,
2013-01-09 19:32:00,28.0,25.0,-100.00,East,85,2.0,5.0,90,0.00,,,0.00,0.000000,,2013-01-10 02:32:00,
2013-01-09 20:02:00,27.0,25.0,-100.00,SSE,162,0.0,5.0,91,0.00,,,0.00,0.000000,,2013-01-10 03:02:00,
2013-01-09 20:12:00,27.0,25.0,-100.00,SSE,162,0.0,5.0,91,0.00,,,0.00,0.000000,,2013-01-10 03:12:00,
2013-01-09 20:22:00,27.0,25.0,-100.00,SSE,162,0.0,5.0,91,0.00,,,0.00,0.000000,,2013-01-10 03:22:00,
2013-01-09 20:32:00,27.0,25.0,-100.00,SSE,162,0.0,5.0,91,0.00,,,0.00,0.000000,,2013-01-10 03:32:00,
2013-01-09 20:52:00,24.0,22.0,-100.00,SE,125,1.0,2.0,91,0.00,,,0.00,0.000000,,2013-01-10 03:52:00,
2013-01-09 21:02:00,24.0,22.0,-100.00,SE,125,1.0,2.0,91,0.00,,,0.00,0.000000,,2013-01-10 04:02:00,
2013-01-09 21:12:00,24.0,22.0,-100.00,SE,125,1.0,2.0,91,0.00,,,0.00,0.000000,,2013-01-10 04:12:00,
2013-01-09 21:22:00,24.0,22.0,-100.00,SE,125,1.0,2.0,91,0.00,,,0.00,0.000000,,2013-01-10 04:22:00,
2013-01-09 21:32:00,24.0,22.0,-100.00,SE,125,1.0,2.0,91,0.00,,,0.00,0.000000,,2013-01-10 04:32:00,
2013-01-09 22:03:00,25.0,23.0,-100.00,West,278,1.0,4.0,92,0.00,,,0.00,0.000000,,2013-01-10 05:03:00,
2013-01-09 22:12:00,25.0,23.0,-100.00,West,278,1.0,4.0,92,0.00,,,0.00,0.000000,,2013-01-10 05:12:00,
2013-01-09 22:22:00,25.0,23.0,-100.00,West,278,1.0,4.0,92,0.00,,,0.00,0.000000,,2013-01-10 05:22:00,
2013-01-09 22:32:00,25.0,23.0,-100.00,West,278,1.0,4.0,92,0.00,,,0.00,0.000000,,2013-01-10 05:32:00,
2013-01-09 23:02:00,24.0,22.0,-100.00,SSE,155,0.0,2.0,91,0.00,,,0.00,0.000000,,2013-01-10 06:02:00,
2013-01-09 23:11:00,24.0,22.0,-100.00,SSE,155,0.0,2.0,91,0.00,,,0.00,0.000000,,2013-01-10 06:11:00,
2013-01-09 23:22:00,24.0,22.0,-100.00,SSE,155,0.0,2.0,91,0.00,,,0.00,0.000000,,2013-01-10 06:22:00,
2013-01-09 23:32:00,24.0,22.0,-100.00,SSE,155,0.0,2.0,91,0.00,,,0.00,0.000000,,2013-01-10 06:32:00,